| time (UTC) | temp F | wind direction | speed MPH | gust MPH | rain 1hr in | rain 24hr in | rain mn in | humidity % | barometer mb |
| 20260509195819 | 87 | 64 | 0.0 | 0.0 | 0.00 | 0.00 | 0.00 | 77 | 1009.8 |
| 20260509194819 | 86 | 64 | 0.0 | 0.0 | 0.00 | 0.00 | 0.00 | 78 | 1010.0 |
| 20260509193849 | 86 | 67 | 0.0 | 0.0 | 0.00 | 0.00 | 0.00 | 79 | 1010.2 |
| 20260509192849 | 87 | 147 | 0.0 | 0.0 | 0.00 | 0.00 | 0.00 | 75 | 1010.2 |
| 20260509191819 | 87 | 147 | 0.0 | 3.0 | 0.00 | 0.00 | 0.00 | 72 | 1010.2 |
| 20260509190819 | 87 | 138 | 0.0 | 0.0 | 0.00 | 0.00 | 0.00 | 75 | 1010.3 |
| 20260509185849 | 86 | 167 | 0.0 | 4.0 | 0.00 | 0.00 | 0.00 | 76 | 1010.6 |
| 20260509184819 | 85 | 164 | 0.0 | 4.0 | 0.00 | 0.00 | 0.00 | 76 | 1010.7 |
| 20260509183849 | 85 | 279 | 0.0 | 0.0 | 0.00 | 0.00 | 0.00 | 76 | 1010.9 |
| 20260509182819 | 85 | 169 | 0.0 | 0.0 | 0.00 | 0.00 | 0.00 | 78 | 1011.0 |
| 20260509181818 | 84 | 169 | 0.0 | 0.0 | 0.00 | 0.00 | 0.00 | 78 | 1011.0 |
| 20260509180818 | 84 | 197 | 0.0 | 0.0 | 0.00 | 0.00 | 0.00 | 80 | 1011.2 |
| 20260509175818 | 83 | 117 | 0.0 | 0.0 | 0.00 | 0.00 | 0.00 | 79 | 1011.3 |
| 20260509174848 | 83 | 311 | 0.0 | 0.0 | 0.00 | 0.00 | 0.00 | 80 | 1011.4 |
| 20260509173848 | 83 | 121 | 0.0 | 0.0 | 0.00 | 0.00 | 0.00 | 81 | 1011.3 |
| 20260509172818 | 82 | 121 | 0.0 | 4.0 | 0.00 | 0.00 | 0.00 | 81 | 1011.3 |
| 20260509171848 | 82 | 157 | 3.0 | 7.0 | 0.00 | 0.00 | 0.00 | 83 | 1011.2 |
| 20260509170818 | 81 | 156 | 0.0 | 0.0 | 0.00 | 0.00 | 0.00 | 82 | 1011.3 |
| 20260509165818 | 81 | 313 | 0.0 | 0.0 | 0.00 | 0.00 | 0.00 | 83 | 1011.4 |
| 20260509164818 | 81 | 312 | 0.0 | 0.0 | 0.00 | 0.00 | 0.00 | 83 | 1011.6 |
| 20260509163847 | 81 | 293 | 0.0 | 0.0 | 0.00 | 0.00 | 0.00 | 84 | 1011.5 |
| 20260509162817 | 80 | 278 | 0.0 | 0.0 | 0.00 | 0.00 | 0.00 | 85 | 1011.6 |
| 20260509161817 | 80 | 168 | 0.0 | 0.0 | 0.00 | 0.00 | 0.00 | 86 | 1011.7 |
| 20260509160817 | 79 | 118 | 0.0 | 0.0 | 0.00 | 0.00 | 0.00 | 86 | 1011.9 |
| 20260509155817 | 79 | 118 | 0.0 | 0.0 | 0.00 | 0.00 | 0.00 | 88 | 1011.7 |
| 20260509154817 | 78 | 102 | 0.0 | 0.0 | 0.00 | 0.00 | 0.00 | 87 | 1011.8 |
| 20260509153847 | 78 | 244 | 0.0 | 4.0 | 0.00 | 0.00 | 0.00 | 87 | 1011.7 |
| 20260509152847 | 78 | 142 | 0.0 | 5.0 | 0.00 | 0.00 | 0.00 | 89 | 1011.5 |
| 20260509151817 | 78 | 184 | 1.0 | 4.0 | 0.00 | 0.00 | 0.00 | 89 | 1011.3 |
| 20260509150817 | 77 | 173 | 0.0 | 0.0 | 0.00 | 0.00 | 0.00 | 90 | 1011.3 |
| 20260509145847 | 77 | 123 | 0.0 | 2.0 | 0.00 | 0.00 | 0.00 | 90 | 1011.5 |
| 20260509144847 | 77 | 167 | 0.0 | 3.0 | 0.00 | 0.00 | 0.00 | 90 | 1011.4 |
| 20260509143902 | 76 | 200 | 0.0 | 0.0 | 0.00 | 0.00 | 0.00 | 90 | 1011.3 |
| 20260509142902 | 76 | 179 | 0.0 | 0.0 | 0.00 | 0.00 | 0.00 | 90 | 1011.2 |
| 20260509141847 | 76 | 101 | 0.0 | 3.0 | 0.00 | 0.00 | 0.00 | 90 | 1010.9 |
| 20260509140847 | 76 | 144 | 0.0 | 4.0 | 0.00 | 0.00 | 0.00 | 91 | 1010.9 |
| 20260509135846 | 76 | 144 | 0.0 | 4.0 | 0.00 | 0.00 | 0.00 | 91 | 1011.1 |
| 20260509134846 | 75 | 177 | 0.0 | 2.0 | 0.00 | 0.00 | 0.00 | 91 | 1011.3 |
| 20260509133846 | 75 | 186 | 0.0 | 2.0 | 0.00 | 0.00 | 0.00 | 91 | 1011.4 |
| 20260509132846 | 75 | 129 | 0.0 | 2.0 | 0.00 | 0.00 | 0.00 | 91 | 1011.3 |
| 20260509131846 | 75 | 129 | 0.0 | 2.0 | 0.00 | 0.00 | 0.00 | 90 | 1011.5 |
| 20260509130846 | 75 | 129 | 0.0 | 0.0 | 0.00 | 0.00 | 0.00 | 90 | 1011.5 |
| 20260509125846 | 74 | 129 | 0.0 | 0.0 | 0.00 | 0.00 | 0.00 | 90 | 1011.4 |
| 20260509124846 | 74 | 129 | 0.0 | 0.0 | 0.00 | 0.00 | 0.00 | 90 | 1011.5 |
| 20260509123846 | 74 | 129 | 0.0 | 0.0 | 0.00 | 0.00 | 0.00 | 90 | 1011.6 |
| 20260509122845 | 74 | 129 | 0.0 | 0.0 | 0.00 | 0.00 | 0.00 | 90 | 1011.6 |
| 20260509121845 | 74 | 129 | 0.0 | 0.0 | 0.00 | 0.00 | 0.00 | 90 | 1011.3 |
| 20260509120845 | 74 | 129 | 0.0 | 0.0 | 0.00 | 0.00 | 0.00 | 90 | 1011.2 |
| 20260509115845 | 74 | 129 | 0.0 | 0.0 | 0.00 | 0.00 | 0.00 | 90 | 1011.0 |
| 20260509114845 | 74 | 129 | 0.0 | 0.0 | 0.00 | 0.00 | 0.00 | 90 | 1011.3 |
| 20260509113845 | 74 | 129 | 0.0 | 0.0 | 0.00 | 0.00 | 0.00 | 90 | 1010.8 |
| 20260509112845 | 74 | 129 | 0.0 | 0.0 | 0.00 | 0.00 | 0.00 | 90 | 1010.8 |
| 20260509111845 | 74 | 129 | 0.0 | 0.0 | 0.00 | 0.00 | 0.00 | 89 | 1010.7 |
| 20260509110845 | 74 | 129 | 0.0 | 0.0 | 0.00 | 0.00 | 0.00 | 90 | 1010.8 |
| 20260509105845 | 74 | 129 | 0.0 | 0.0 | 0.00 | 0.00 | 0.00 | 89 | 1010.5 |
| 20260509104845 | 74 | 129 | 0.0 | 0.0 | 0.00 | 0.00 | 0.00 | 89 | 1010.6 |
| 20260509103845 | 74 | 129 | 0.0 | 0.0 | 0.00 | 0.00 | 0.00 | 89 | 1010.8 |
| 20260509102845 | 74 | 129 | 0.0 | 0.0 | 0.00 | 0.00 | 0.00 | 89 | 1011.2 |
| 20260509101845 | 74 | 129 | 0.0 | 0.0 | 0.00 | 0.00 | 0.00 | 90 | 1011.0 |
| 20260509100845 | 74 | 129 | 0.0 | 0.0 | 0.00 | 0.00 | 0.00 | 90 | 1010.9 |
| 20260509095845 | 74 | 129 | 0.0 | 0.0 | 0.00 | 0.00 | 0.00 | 89 | 1010.8 |
| 20260509094845 | 74 | 129 | 0.0 | 0.0 | 0.00 | 0.00 | 0.00 | 90 | 1010.6 |
| 20260509093845 | 74 | 129 | 0.0 | 0.0 | 0.00 | 0.00 | 0.00 | 89 | 1010.6 |
| 20260509092844 | 74 | 129 | 0.0 | 0.0 | 0.00 | 0.00 | 0.00 | 89 | 1010.6 |
| 20260509091845 | 74 | 129 | 0.0 | 0.0 | 0.00 | 0.00 | 0.00 | 89 | 1010.8 |
| 20260509090844 | 74 | 129 | 0.0 | 0.0 | 0.00 | 0.00 | 0.00 | 89 | 1011.1 |
| 20260509085844 | 74 | 129 | 0.0 | 0.0 | 0.00 | 0.00 | 0.00 | 89 | 1011.2 |
| 20260509084844 | 74 | 129 | 0.0 | 0.0 | 0.00 | 0.00 | 0.00 | 89 | 1011.0 |
| 20260509083844 | 74 | 129 | 0.0 | 0.0 | 0.00 | 0.00 | 0.00 | 89 | 1011.0 |
| 20260509082844 | 74 | 129 | 0.0 | 0.0 | 0.00 | 0.00 | 0.00 | 89 | 1011.1 |
| 20260509081844 | 74 | 129 | 0.0 | 0.0 | 0.00 | 0.00 | 0.00 | 89 | 1011.0 |
| 20260509080859 | 74 | 129 | 0.0 | 0.0 | 0.00 | 0.00 | 0.00 | 89 | 1011.1 |
| 20260509075859 | 74 | 129 | 0.0 | 0.0 | 0.00 | 0.00 | 0.00 | 89 | 1011.3 |
| 20260509074844 | 74 | 129 | 0.0 | 0.0 | 0.00 | 0.00 | 0.00 | 89 | 1011.2 |
| 20260509073844 | 74 | 129 | 0.0 | 0.0 | 0.00 | 0.00 | 0.00 | 89 | 1011.2 |
| 20260509072859 | 74 | 157 | 0.0 | 5.0 | 0.00 | 0.00 | 0.00 | 89 | 1010.9 |
| 20260509071844 | 74 | 134 | 2.0 | 2.0 | 0.00 | 0.00 | 0.00 | 89 | 1010.8 |
| 20260509070844 | 74 | 111 | 0.0 | 3.0 | 0.00 | 0.00 | 0.00 | 89 | 1010.8 |
| 20260509065844 | 74 | 159 | 1.0 | 4.0 | 0.00 | 0.00 | 0.00 | 89 | 1011.0 |
| 20260509064843 | 74 | 113 | 2.0 | 4.0 | 0.00 | 0.00 | 0.00 | 88 | 1011.0 |
| 20260509063843 | 74 | 84 | 2.0 | 6.0 | 0.00 | 0.00 | 0.00 | 88 | 1010.8 |
| 20260509062843 | 74 | 174 | 1.0 | 6.0 | 0.00 | 0.00 | 0.00 | 88 | 1010.7 |
| 20260509061844 | 74 | 121 | 0.0 | 4.0 | 0.00 | 0.00 | 0.00 | 88 | 1011.0 |
| 20260509060843 | 74 | 76 | 4.0 | 4.0 | 0.00 | 0.00 | 0.00 | 88 | 1011.1 |
| 20260509055843 | 74 | 148 | 0.0 | 6.0 | 0.00 | 0.00 | 0.00 | 88 | 1011.3 |
| 20260509054843 | 74 | 95 | 0.0 | 6.0 | 0.00 | 0.00 | 0.00 | 88 | 1011.3 |
| 20260509053843 | 74 | 94 | 1.0 | 7.0 | 0.00 | 0.00 | 0.00 | 88 | 1011.4 |
| 20260509052843 | 74 | 101 | 2.0 | 7.0 | 0.00 | 0.00 | 0.00 | 88 | 1011.3 |
| 20260509051843 | 74 | 165 | 4.0 | 7.0 | 0.00 | 0.00 | 0.00 | 88 | 1011.2 |
| 20260509050843 | 74 | 125 | 1.0 | 7.0 | 0.00 | 0.00 | 0.00 | 87 | 1011.4 |
| 20260509045843 | 74 | 94 | 0.0 | 4.0 | 0.00 | 0.00 | 0.00 | 87 | 1011.5 |
| 20260509044858 | 74 | 121 | 0.0 | 6.0 | 0.00 | 0.00 | 0.00 | 87 | 1011.4 |
| 20260509043842 | 74 | 80 | 0.0 | 2.0 | 0.00 | 0.00 | 0.00 | 87 | 1011.3 |
| 20260509042829 | 74 | 131 | 1.0 | 6.0 | 0.00 | 0.00 | 0.00 | 87 | 1011.3 |
| 20260509041829 | 74 | 138 | 1.0 | 7.0 | 0.00 | 0.00 | 0.00 | 87 | 1011.3 |
| 20260509040829 | 74 | 89 | 1.0 | 7.0 | 0.00 | 0.00 | 0.00 | 86 | 1011.1 |
| 20260509035829 | 74 | 73 | 0.0 | 6.0 | 0.00 | 0.00 | 0.00 | 86 | 1011.2 |
| 20260509034829 | 74 | 101 | 2.0 | 4.0 | 0.00 | 0.00 | 0.00 | 86 | 1011.4 |
| 20260509033829 | 74 | 146 | 3.0 | 8.0 | 0.00 | 0.00 | 0.00 | 85 | 1011.4 |
| 20260509032829 | 75 | 144 | 2.0 | 7.0 | 0.00 | 0.00 | 0.00 | 85 | 1011.3 |
| 20260509031844 | 75 | 81 | 0.0 | 4.0 | 0.00 | 0.00 | 0.00 | 85 | 1011.2 |
| 20260509030829 | 75 | 107 | 2.0 | 6.0 | 0.00 | 0.00 | 0.00 | 85 | 1011.0 |
| 20260509025829 | 75 | 96 | 4.0 | 5.0 | 0.00 | 0.00 | 0.00 | 84 | 1010.7 |
| 20260509024829 | 75 | 106 | 0.0 | 6.0 | 0.00 | 0.00 | 0.00 | 84 | 1010.6 |
| 20260509023828 | 75 | 115 | 1.0 | 9.0 | 0.00 | 0.00 | 0.00 | 83 | 1010.6 |
| 20260509022828 | 76 | 163 | 1.0 | 7.0 | 0.00 | 0.00 | 0.00 | 83 | 1010.7 |
| 20260509021828 | 76 | 151 | 0.0 | 8.0 | 0.00 | 0.00 | 0.00 | 83 | 1010.7 |
| 20260509020843 | 76 | 122 | 4.0 | 8.0 | 0.00 | 0.00 | 0.00 | 82 | 1010.7 |
| 20260509015828 | 76 | 122 | 2.0 | 9.0 | 0.00 | 0.00 | 0.00 | 81 | 1010.8 |
| 20260509014844 | 76 | 114 | 1.0 | 9.0 | 0.00 | 0.00 | 0.00 | 81 | 1010.6 |
| 20260509013828 | 76 | 160 | 0.0 | 8.0 | 0.00 | 0.00 | 0.00 | 81 | 1010.5 |
| 20260509012828 | 77 | 97 | 2.0 | 4.0 | 0.00 | 0.00 | 0.00 | 81 | 1010.5 |
| 20260509011828 | 77 | 95 | 0.0 | 3.0 | 0.00 | 0.00 | 0.00 | 80 | 1010.5 |
| 20260509010828 | 77 | 92 | 0.0 | 3.0 | 0.00 | 0.00 | 0.00 | 80 | 1010.1 |
| 20260509005843 | 77 | 104 | 2.0 | 3.0 | 0.00 | 0.00 | 0.00 | 80 | 1009.9 |
| 20260509004828 | 77 | 86 | 0.0 | 9.0 | 0.00 | 0.00 | 0.00 | 79 | 1010.2 |
| 20260509003858 | 77 | 119 | 3.0 | 7.0 | 0.00 | 0.00 | 0.00 | 79 | 1010.2 |
| 20260509002828 | 78 | 106 | 0.0 | 6.0 | 0.00 | 0.00 | 0.00 | 79 | 1010.2 |
| 20260509001827 | 78 | 108 | 2.0 | 7.0 | 0.00 | 0.00 | 0.00 | 78 | 1010.4 |
| 20260509000827 | 78 | 103 | 1.0 | 6.0 | 0.00 | 0.00 | 0.00 | 78 | 1010.3 |
| 20260508235842 | 78 | 137 | 5.0 | 7.0 | 0.00 | 0.00 | 0.00 | 78 | 1010.3 |
| 20260508234827 | 78 | 94 | 7.0 | 7.0 | 0.00 | 0.00 | 0.00 | 78 | 1010.5 |
| 20260508233827 | 78 | 84 | 0.0 | 3.0 | 0.00 | 0.00 | 0.00 | 78 | 1010.6 |
| 20260508232827 | 79 | 127 | 3.0 | 6.0 | 0.00 | 0.00 | 0.00 | 78 | 1010.5 |
| 20260508231827 | 79 | 88 | 0.0 | 4.0 | 0.00 | 0.00 | 0.00 | 78 | 1010.4 |
| 20260508230827 | 79 | 84 | 2.0 | 3.0 | 0.00 | 0.00 | 0.00 | 78 | 1010.4 |
| 20260508225827 | 80 | 80 | 0.0 | 7.0 | 0.00 | 0.00 | 0.00 | 77 | 1010.4 |
| 20260508224827 | 80 | 107 | 0.0 | 6.0 | 0.00 | 0.00 | 0.00 | 77 | 1010.4 |
| 20260508223827 | 80 | 107 | 2.0 | 6.0 | 0.00 | 0.00 | 0.00 | 77 | 1010.4 |
| 20260508222826 | 80 | 118 | 2.0 | 7.0 | 0.00 | 0.00 | 0.00 | 77 | 1010.4 |
| 20260508221827 | 80 | 98 | 0.0 | 4.0 | 0.00 | 0.00 | 0.00 | 77 | 1010.4 |
| 20260508220827 | 80 | 115 | 1.0 | 5.0 | 0.00 | 0.00 | 0.00 | 77 | 1010.5 |
| 20260508215826 | 80 | 83 | 0.0 | 3.0 | 0.00 | 0.00 | 0.00 | 77 | 1010.5 |
| 20260508214826 | 80 | 139 | 0.0 | 2.0 | 0.00 | 0.00 | 0.00 | 76 | 1010.5 |
| 20260508213826 | 81 | 143 | 1.0 | 6.0 | 0.00 | 0.00 | 0.00 | 76 | 1010.5 |
| 20260508212826 | 81 | 148 | 3.0 | 6.0 | 0.00 | 0.00 | 0.00 | 76 | 1010.6 |
| 20260508211826 | 81 | 113 | 3.0 | 4.0 | 0.00 | 0.00 | 0.00 | 75 | 1010.7 |
| 20260508210826 | 81 | 87 | 1.0 | 5.0 | 0.00 | 0.00 | 0.00 | 75 | 1010.7 |
| 20260508205826 | 81 | 147 | 2.0 | 6.0 | 0.00 | 0.00 | 0.00 | 75 | 1010.8 |
| 20260508204826 | 81 | 113 | 0.0 | 4.0 | 0.00 | 0.00 | 0.00 | 74 | 1010.9 |
| 20260508203826 | 82 | 144 | 1.0 | 3.0 | 0.00 | 0.00 | 0.00 | 75 | 1011.1 |
| 20260508202826 | 82 | 167 | 0.0 | 3.0 | 0.00 | 0.00 | 0.00 | 75 | 1011.3 |
| 20260508201826 | 82 | 92 | 2.0 | 4.0 | 0.00 | 0.00 | 0.00 | 75 | 1011.3 |
| 20260508200825 | 82 | 165 | 0.0 | 2.0 | 0.00 | 0.00 | 0.00 | 76 | 1011.4 |